Back to catalog

STARLINK-5877

AliveCommunicationsSSO
NORAD 56354·PAYLOAD·🇺🇸 United States

Launched Apr 27, 2023 from Vandenberg Space Force Base

Loading…

Next Passes (next 24 hours)

TLE

FreshSource: CelesTrak SupGP

Epoch: Sep 14, 2026, 14:32 UTC

1 56354C 23058AP  26257.60604167 -.00080284  00000+0 -24926-2 0  2578
2 56354  97.2847 254.4912 0001807  94.5461 315.1249 15.33474333    16

Track STARLINK-5877 in real time with AllMySat

Download on the App Store